Home   Weather   Krefeld   Past weeks

Flag for Germany Past Weather in Krefeld, North Rhine-Westphalia, Germany — Yesterday and Last 2 Weeks

Now
52 °F

Passing clouds.


Feels Like: 47 °F
Forecast: 40 / 48 °F
Wind: 13 mph from South

Location: Monchengladbach Airport

Current Time: Feb 27, 2017 at 10:24:49 am

Latest Report: Feb 27, 2017 at 9:50 am


Visibility: N/A

Pressure: 29.59 "Hg

Humidity: 67%

Dew Point: 41 °F

Location of KrefeldLocation

Past Weather in Krefeld — Graph

°F

Krefeld Temperature Yesterday

Maximum temperature yesterday: 55 °F (at 1:50 pm)
Minimum temperature yesterday: 46 °F (at 8:20 am)
Average temperature yesterday: 52 °F

High & Low Weather Summary for the Past Weeks

 TemperatureHumidityPressure
High57 °F (Feb 15, 2:50 pm)100% (Feb 17, 9:20 am)30.54 "Hg (Feb 17, 9:20 am)
Low30 °F (Feb 14, 7:20 am)47% (Feb 14, 3:20 pm)29.27 "Hg (Feb 23, 3:20 pm)
Average47 °F74%30.12 "Hg
* Reported Feb 12 8:50 am — Feb 27 8:50 am, Krefeld, Weather by CustomWeather, © 2017

Note: Actual official high and low records may vary slightly from our data, if they occured in-between our weather recording intervals... More about our weather records

Advertising

Krefeld Weather History for the Previous 24 Hours

Scroll right to see more
 ConditionsComfort  
Time TempWeatherWind HumidityBarometerVisibility
8:50 am
Mon, Feb 27
52 °FPartly sunny.8 mph72%29.62 "HgN/A
8:20 am52 °FPartly sunny.10 mph67%29.62 "HgN/A
7:50 am52 °FPartly sunny.14 mph67%29.65 "HgN/A
6:20 am50 °FPartly sunny.7 mph76%29.68 "HgN/A
7:50 pm
Sun, Feb 26
52 °FPassing clouds.9 mph72%29.83 "HgN/A
7:20 pm50 °FPassing clouds.8 mph76%29.86 "HgN/A
6:50 pm52 °FPassing clouds.8 mph77%29.86 "HgN/A
6:20 pm52 °FPassing clouds.7 mph77%29.83 "HgN/A
5:50 pm52 °FPassing clouds.8 mph77%29.83 "HgN/A
5:20 pm54 °FPassing clouds.10 mph72%29.83 "HgN/A
4:50 pm54 °FPassing clouds.12 mph67%29.83 "HgN/A
4:20 pm54 °FPassing clouds.9 mph72%29.83 "HgN/A
3:50 pm55 °FPassing clouds.18 mph63%29.83 "HgN/A
3:20 pm55 °FPassing clouds.10 mph63%29.83 "HgN/A
2:50 pm55 °FPassing clouds.12 mph63%29.86 "HgN/A
2:20 pm54 °FPassing clouds.18 mph67%29.86 "HgN/A
1:50 pm55 °FPassing clouds.13 mph63%29.86 "HgN/A
1:20 pm54 °FPassing clouds.13 mph63%29.86 "HgN/A
12:50 pm54 °FPassing clouds.13 mph63%29.86 "HgN/A
12:20 pm52 °FPassing clouds.12 mph67%29.89 "HgN/A
11:50 am50 °FPassing clouds.17 mph67%29.89 "HgN/A
11:20 am50 °FPassing clouds.12 mph67%29.89 "HgN/A
10:50 am50 °FPassing clouds.13 mph67%29.89 "HgN/A
10:20 am48 °FPassing clouds.12 mph66%29.89 "HgN/A
Weather by CustomWeather, © 2017

See weather overviewHow to use our weather pages